Location: Brunembert
(50.7122°N, 1.8935°E)
Time: 10:57:52
(UTC+00:00)

Cosmos 2263 Rocket - Pass Details

Date: 22 April 2021
Orbit: 824 x 848 km, 71.0° (Epoch: 16 May)

Event Time Altitude Azimuth Distance (km) Brightness Sun altitude
Exits shadow 20:34:37 12° 92° (E) 2,291 4.0 -13.8°
Drops below altitude 10° 20:36:18 10° 74° (ENE) 2,431 4.3 -14.0°
Sets 20:40:24 0° 45° (NE) 3,374 5.3 -14.4°
